This is the latest recevied weather packets stored in our database for station/object VA3XLT-1. If no packets are shown the sender has not sent any weather packets the latest 10 day(s).
| Time | Temp. | Humidity | Pressure | Rain* | Wind** | Luminosity | Snow |
|---|---|---|---|---|---|---|---|
| 1777957059 | 15.56° C | 81% | 1001.3 hPa | 0 mm | - | - | - |
| 1777956759 | 15.56° C | 82% | 1001.4 hPa | 0 mm | - | - | - |
| 1777956459 | 15.56° C | 80% | 1001.5 hPa | 0 mm | - | - | - |
| 1777956159 | 16.11° C | 77% | 1001.4 hPa | 0 mm | - | - | - |
| 1777955859 | 15.56° C | 77% | 1001.3 hPa | 0 mm | - | - | - |
| 1777955559 | 16.11° C | 77% | 1001.3 hPa | 0 mm | - | - | - |
| 1777955259 | 16.11° C | 76% | 1001.3 hPa | 0 mm | - | - | - |
| 1777954959 | 16.11° C | 76% | 1001.4 hPa | 0 mm | - | - | - |
| 1777954659 | 16.11° C | 77% | 1001.3 hPa | 0 mm | - | - | - |
| 1777954359 | 16.11° C | 77% | 1001.3 hPa | 0 mm | - | - | - |
| 1777954059 | 16.11° C | 76% | 1001.2 hPa | 0 mm | - | - | - |
| 1777953759 | 15.56° C | 78% | 1001.3 hPa | 0 mm | - | - | - |
| 1777953459 | 16.11° C | 79% | 1001.3 hPa | 0 mm | - | - | - |
| 1777953159 | 16.11° C | 80% | 1001.4 hPa | 0 mm | - | - | - |
| 1777952859 | 16.11° C | 79% | 1001.4 hPa | 0 mm | - | - | - |
| 1777952559 | 16.11° C | 79% | 1001.5 hPa | 0 mm | - | - | - |
| 1777952259 | 16.11° C | 79% | 1001.7 hPa | 0 mm | - | - | - |
| 1777951959 | 16.67° C | 78% | 1001.7 hPa | 0 mm | - | - | - |
| 1777951659 | 16.67° C | 76% | 1001.8 hPa | 0 mm | - | - | - |
| 1777951359 | 16.67° C | 76% | 1001.9 hPa | 0 mm | - | - | - |
| 1777951059 | 16.67° C | 76% | 1001.9 hPa | 0 mm | - | - | - |
| 1777950759 | 16.67° C | 76% | 1002 hPa | 0 mm | - | - | - |
| 1777950459 | 16.67° C | 76% | 1002 hPa | 0 mm | - | - | - |
| 1777950159 | 16.67° C | 78% | 1002 hPa | 0 mm | - | - | - |
| 1777949859 | 16.11° C | 81% | 1001.9 hPa | 0 mm | - | - | - |
* Rain latest hour (hover to see other rain measurements)
** Current wind speed in m/s (hover to see current wind gust speed)